Glendale Luke AFB, AZ

12:07 AM MST on September 16, 2019 (GMT -0700)
Luke Air Force Base

Weather History for KLUF - July, 2019

Change the Weather History Date:

Tuesday, July 30, 2019

  Actual Average Record
Temperature  
Mean Temperature 92 °F -  
Max Temperature 105 °F 107 °F 115 °F (1934)
Min Temperature 79 °F 76 °F 70 °F (1941)
Cooling Degree Days 27    
Growing Degree Days 42 (Base 50)    
Moisture  
Dew Point 66 °F    
Average Humidity 49    
Maximum Humidity 79    
Minimum Humidity 22    
Precipitation  
Precipitation 0.11 in - - ()
Sea Level Pressure  
Sea Level Pressure 29.82 in    
Wind  
Wind Speed 8 mph (ESE)    
Max Wind Speed 23 mph    
Max Gust Speed 30 mph    
Visibility 10 miles    
Events Rain , Thunderstorm    
Averages and records for this station are not official NWS values.
T = Trace of Precipitation, MM = Missing Value Source: NWS Daily Summary

Daily Weather History Graph

Daily Weather History Graph

Search for Another Location

Airport or City:

Astronomy

Jul. 30, 2019 Rise Set
Actual Time 5:40 AM MST 7:31 PM MST
Civil Twilight 5:13 AM MST 7:58 PM MST
Nautical Twilight 4:39 AM MST 8:31 PM MST
Astronomical Twilight 4:04 AM MST 9:06 PM MST
Moon 3:56 AM MST (7/30) 6:36 PM MST (7/30)
Length of Visible Light 14h 45m
Length of Day
13h 50m
Waning Crescent, 3% of the Moon is Illuminated
Jul 30
Waning Crescent
Jul 31
New
Aug 7
First Quarter
Aug 15
Full
Aug 23
Last Quarter

Hourly Weather History & Observations

Time (MST) Temp. Heat Index Dew Point Humidity Pressure Visibility Wind Dir Wind Speed Gust Speed Precip Events Conditions
12:58 AM 91.9 °F 91.2 °F 58.6 °F 33% 29.78 in 10.0 mi ENE 5.8 mph - N/A   Clear
1:58 AM 94.1 °F 93.1 °F 57.9 °F 30% 29.78 in 10.0 mi Calm Calm - N/A   Overcast
2:58 AM 93.4 °F 93.2 °F 59.9 °F 33% 29.80 in 10.0 mi South 6.9 mph - N/A   Overcast
3:31 AM 91.4 °F 92.1 °F 62.6 °F 38% 29.81 in 10.0 mi SSE 5.8 mph - N/A Rain Light Rain
3:32 AM 91.4 °F 92.1 °F 62.6 °F 38% 29.82 in 10.0 mi SE 5.8 mph - N/A Rain Light Rain
3:52 AM 87.8 °F 92.6 °F 69.8 °F 55% 29.82 in 9.0 mi ESE 6.9 mph - N/A Rain Rain
3:58 AM 85.8 °F 90.8 °F 70.3 °F 60% 29.82 in 7.0 mi ESE 3.5 mph - 0.03 in Rain Light Rain
4:18 AM 84.2 °F 89.6 °F 71.6 °F 66% 29.82 in 10.0 mi North 4.6 mph - N/A   Light Drizzle
4:19 AM 84.2 °F 89.6 °F 71.6 °F 66% 29.82 in 10.0 mi North 4.6 mph - N/A   Mostly Cloudy
4:29 AM 84.2 °F 88.4 °F 69.8 °F 62% 29.82 in 10.0 mi Calm Calm - N/A   Scattered Clouds
4:58 AM 86.0 °F 91.8 °F 71.4 °F 62% 29.82 in 10.0 mi NNW 3.5 mph - 0.02 in   Clear
5:58 AM 82.9 °F 89.4 °F 73.8 °F 74% 29.85 in 10.0 mi NW 5.8 mph - N/A   Mostly Cloudy
6:58 AM 84.4 °F 91.0 °F 73.0 °F 69% 29.83 in 10.0 mi North 4.6 mph - N/A   Mostly Cloudy
7:58 AM 86.7 °F 92.9 °F 71.6 °F 61% 29.86 in 10.0 mi NNE 4.6 mph - 0.00 in   Mostly Cloudy
8:58 AM 90.3 °F 94.7 °F 68.5 °F 49% 29.86 in 10.0 mi Calm Calm - N/A   Partly Cloudy
9:35 AM 91.4 °F 94.0 °F 66.2 °F 43% 29.88 in 10.0 mi Calm Calm - N/A   Light Drizzle
9:36 AM 93.2 °F 96.2 °F 66.2 °F 41% 29.88 in 10.0 mi Calm Calm - N/A   Partly Cloudy
9:58 AM 93.2 °F 96.2 °F 66.2 °F 41% 29.88 in 10.0 mi Calm Calm - N/A   Scattered Clouds
10:58 AM 96.3 °F 98.1 °F 63.3 °F 34% 29.86 in 10.0 mi NNW 3.5 mph - N/A   Partly Cloudy
11:58 AM 99.0 °F 100.5 °F 62.1 °F 30% 29.83 in 10.0 mi NW 5.8 mph - N/A   Partly Cloudy
12:58 PM 101.5 °F 102.4 °F 61.2 °F 26% 29.81 in 10.0 mi West 6.9 mph - N/A   Scattered Clouds
1:58 PM 102.4 °F 103.9 °F 61.9 °F 26% 29.77 in 10.0 mi SSW 10.4 mph - N/A   Partly Cloudy
2:58 PM 104.0 °F 106.0 °F 61.2 °F 25% 29.74 in 10.0 mi SSW 11.5 mph - N/A   Clear
3:54 PM 104.0 °F 104.6 °F 59.0 °F 23% 29.71 in 10.0 mi SW 16.1 mph 19.6 mph N/A   Clear
3:56 PM 104.7 °F 105.8 °F 59.4 °F 23% 29.71 in 10.0 mi WSW 16.1 mph 19.6 mph N/A   Clear
4:14 PM 105.8 °F 106.8 °F 59.0 °F 22% 29.71 in 10.0 mi WSW 17.3 mph 21.9 mph N/A   Clear
4:42 PM 105.8 °F 106.8 °F 59.0 °F 22% 29.70 in 10.0 mi West 15.0 mph 23.0 mph N/A   Clear
5:32 PM 105.8 °F 106.8 °F 59.0 °F 22% 29.70 in 10.0 mi West 13.8 mph 23.0 mph N/A   Scattered Clouds
5:58 PM 104.9 °F 106.1 °F 59.5 °F 23% 29.70 in 10.0 mi WSW 17.3 mph - N/A   Mostly Cloudy
6:32 PM 104.0 °F 104.6 °F 59.0 °F 23% 29.73 in 10.0 mi South 16.1 mph - N/A   Partly Cloudy
6:38 PM 104.0 °F 105.3 °F 60.8 °F 24% 29.73 in 10.0 mi SE 18.4 mph 26.5 mph N/A   Scattered Clouds
6:58 PM 97.7 °F 98.5 °F 61.0 °F 30% 29.74 in 10.0 mi SE 12.7 mph 28.8 mph N/A   Partly Cloudy
7:58 PM 92.7 °F 95.8 °F 66.2 °F 42% 29.78 in 10.0 mi SSE 19.6 mph - N/A   Partly Cloudy
8:58 PM 91.4 °F 92.8 °F 63.7 °F 40% 29.83 in 10.0 mi NE 16.1 mph 21.9 mph N/A   Overcast
9:06 PM 93.2 °F 94.9 °F 64.4 °F 38% 29.85 in 10.0 mi ENE 12.7 mph 21.9 mph N/A   Light Drizzle
9:16 PM 89.6 °F 93.4 °F 68.0 °F 49% 29.86 in 10.0 mi NE 23.0 mph 28.8 mph N/A Rain , Thunderstorm Light Thunderstorms and Rain
9:19 PM 87.8 °F 90.4 °F 66.2 °F 49% 29.86 in 10.0 mi East 13.8 mph 29.9 mph N/A Rain , Thunderstorm Light Thunderstorms and Rain
9:22 PM 87.8 °F 91.4 °F 68.0 °F 52% 29.86 in 10.0 mi ESE 17.3 mph 29.9 mph N/A Rain , Thunderstorm Light Thunderstorms and Rain
9:32 PM 84.2 °F 89.6 °F 71.6 °F 66% 29.88 in 10.0 mi ENE 16.1 mph - N/A Rain , Thunderstorm Light Thunderstorms and Rain
9:42 PM 80.6 °F 84.6 °F 71.6 °F 74% 29.87 in 8.0 mi NE 13.8 mph - N/A Rain , Thunderstorm Thunderstorms and Rain
9:45 PM 80.6 °F 84.6 °F 71.6 °F 74% 29.87 in 9.0 mi ENE 12.7 mph 24.2 mph N/A Rain , Thunderstorm Light Rain
9:48 PM 80.6 °F 84.6 °F 71.6 °F 74% 29.87 in 10.0 mi ENE 15.0 mph - N/A Rain , Thunderstorm Light Rain
9:58 PM 79.7 °F - 71.8 °F 77% 29.87 in 10.0 mi ENE 11.5 mph - 0.06 in Rain , Thunderstorm Light Rain
10:30 PM 82.4 °F 87.2 °F 71.6 °F 70% 29.89 in 10.0 mi ESE 8.1 mph - N/A   Mostly Cloudy
10:50 PM 82.4 °F 88.2 °F 73.4 °F 74% 29.92 in 10.0 mi SE 9.2 mph - N/A   Mostly Cloudy
10:55 PM 82.4 °F 88.2 °F 73.4 °F 74% 29.92 in 10.0 mi SSE 12.7 mph - N/A   Light Drizzle
10:58 PM 82.4 °F 87.9 °F 72.9 °F 73% 29.92 in 10.0 mi SE 13.8 mph - 0.00 in   Light Drizzle
11:09 PM 80.6 °F 85.4 °F 73.4 °F 79% 29.92 in 10.0 mi SE 12.7 mph - N/A   Mostly Cloudy
11:19 PM 80.6 °F 84.6 °F 71.6 °F 74% 29.92 in 10.0 mi ESE 11.5 mph - N/A   Scattered Clouds
11:58 PM 80.2 °F 84.5 °F 72.7 °F 78% 29.93 in 10.0 mi East 8.1 mph - 0.00 in   Partly Cloudy